Temp
-13 -13 -13 -14 -14 -14 -14 -15 -15 -15 -15 -15 -15 -15 -15 -15 -15 -15 -15 -15 -15 -15 -15 -15 -15 -15 -15 -15 -15 -15 -15 -16 -16 -16 -16 -17 -17 -17 -17 -17 -17 -18 -18
-13 -13 -14 -14 -14 -14 -15 -15 -15 -15 -15 -15 -15 -15 -15 -15 -15 -15 -15 -15 -15 -15 -15 -16 -16 -16 -16 -16 -16 -16 -16 -16 -16 -17 -17 -17 -17 -17 -18 -19 -21 -21 -22
-13 -14 -14 -14 -15 -15 -15 -15 -16 -15 -15 -15 -15 -15 -16 -16 -16 -16 -16 -16 -16 -16 -16 -16 -16 -16 -16 -17 -17 -17 -17 -17 -17 -17 -17 -17 -18 -19 -22 -22 -23 -23 -23
-13 -14 -14 -15 -15 -15 -15 -16 -16 -16 -16 -15 -16 -16 -16 -16 -16 -16 -16 -16 -16 -17 -17 -17 -17 -17 -17 -17 -17 -17 -17 -17 -17 -19 -20 -21 -21 -23 -23 -24 -24 -24 -23
-14 -14 -15 -15 -15 -15 -16 -16 -16 -16 -16 -16 -16 -16 -16 -16 -16 -16 -17 -17 -17 -17 -17 -17 -17 -17 -17 -17 -17 -17 -18 -18 -20 -21 -22 -23 -23 -24 -24 -24 -23 -23 -24
-14 -14 -15 -15 -16 -16 -16 -16 -16 -16 -17 -17 -17 -17 -17 -17 -17 -17 -17 -17 -17 -17 -17 -17 -17 -17 -18 -18 -18 -18 -19 -21 -22 -22 -24 -24 -24 -24 -24 -24 -24 -24 -24
-14 -15 -15 -16 -16 -16 -16 -16 -17 -17 -17 -17 -17 -17 -17 -18 -18 -18 -18 -18 -18 -18 -18 -18 -18 -18 -18 -19 -19 -19 -21 -22 -23 -23 -24 -24 -24 -24 -24 -24 -24 -24 -24
-14 -15 -15 -16 -16 -16 -16 -17 -17 -17 -17 -17 -17 -18 -18 -18 -18 -18 -18 -18 -18 -18 -18 -18 -18 -19 -19 -19 -19 -21 -22 -22 -23 -23 -24 -25 -25 -25 -25 -24 -24 -24 -24
-14 -15 -15 -16 -16 -16 -17 -17 -17 -17 -17 -17 -18 -18 -18 -18 -18 -18 -18 -19 -18 -18 -18 -18 -19 -19 -19 -19 -20 -22 -22 -23 -23 -24 -24 -25 -25 -25 -24 -24 -24 -23 -23
-14 -15 -16 -16 -16 -17 -17 -17 -17 -17 -18 -18 -18 -18 -19 -19 -19 -19 -19 -18 -19 -19 -19 -19 -19 -19 -19 -20 -21 -22 -22 -23 -23 -24 -24 -25 -24 -24 -24 -23 -23 -22 -22
-14 -15 -16 -16 -16 -17 -17 -17 -17 -18 -18 -18 -18 -19 -19 -19 -19 -19 -19 -19 -19 -19 -19 -19 -20 -20 -20 -20 -22 -22 -22 -23 -23 -24 -23 -23 -23 -23 -22 -22 -22 -22 -22
-15 -15 -16 -16 -17 -17 -17 -17 -17 -18 -18 -19 -19 -19 -19 -19 -19 -19 -19 -20 -20 -19 -19 -20 -20 -20 -20 -21 -22 -22 -22 -23 -23 -23 -23 -23 -22 -22 -22 -22 -22 -22 -22
-15 -15 -16 -16 -17 -17 -17 -17 -18 -18 -18 -19 -19 -20 -20 -20 -20 -20 -20 -20 -19 -20 -20 -20 -20 -20 -21 -21 -22 -22 -22 -23 -23 -23 -23 -22 -22 -22 -22 -22 -22 -22 -22
-15 -15 -16 -16 -17 -17 -18 -18 -18 -19 -19 -20 -20 -20 -20 -20 -20 -20 -20 -20 -20 -20 -20 -20 -20 -20 -21 -22 -22 -22 -22 -23 -23 -23 -22 -22 -22 -22 -22 -22 -22 -22 -22
-15 -16 -16 -16 -17 -17 -18 -18 -18 -19 -20 -20 -20 -20 -20 -20 -20 -20 -20 -20 -20 -20 -20 -20 -21 -21 -22 -22 -23 -22 -23 -23 -23 -23 -22 -22 -22 -22 -22 -22 -22 -22 -22
-15 -16 -16 -17 -17 -18 -18 -18 -19 -19 -20 -20 -21 -20 -20 -20 -20 -20 -20 -20 -20 -20 -20 -21 -21 -22 -22 -23 -22 -22 -23 -23 -23 -23 -23 -22 -22 -22 -22 -23 -23 -22 -22
-15 -16 -16 -17 -17 -18 -19 -19 -19 -19 -20 -21 -21 -21 -21 -21 -20 -20 -20 -20 -20 -21 -20 -21 -22 -22 -23 -23 -22 -23 -23 -24 -24 -24 -23 -23 -23 -23 -23 -23 -22 -22 -22
-15 -16 -16 -17 -17 -18 -19 -19 -19 -20 -20 -21 -21 -21 -20 -20 -20 -20 -20 -21 -21 -21 -21 -22 -22 -23 -23 -23 -23 -23 -24 -24 -24 -24 -24 -23 -23 -23 -23 -23 -22 -22 -22
-16 -16 -17 -17 -18 -19 -19 -19 -19 -20 -20 -20 -20 -20 -20 -20 -20 -20 -21 -21 -21 -21 -22 -22 -22 -23 -23 -23 -23 -23 -24 -24 -24 -24 -24 -23 -23 -23 -23 -22 -22 -22 -21
-16 -16 -17 -18 -19 -19 -19 -19 -20 -20 -20 -21 -20 -20 -20 -20 -20 -20 -21 -21 -21 -22 -22 -23 -23 -23 -23 -23 -23 -23 -24 -24 -24 -24 -23 -23 -23 -23 -22 -22 -22 -21 -21
-16 -17 -17 -17 -18 -18 -19 -20 -20 -20 -21 -20 -20 -20 -20 -20 -21 -21 -21 -21 -22 -22 -23 -23 -23 -24 -23 -23 -23 -23 -24 -24 -24 -24 -23 -23 -23 -23 -22 -22 -21 -21 -21
-17 -16 -17 -17 -18 -19 -19 -20 -20 -20 -20 -20 -20 -20 -21 -21 -21 -21 -21 -22 -22 -23 -23 -23 -24 -24 -24 -23 -23 -24 -24 -24 -24 -24 -23 -23 -22 -22 -22 -21 -21 -21 -21
-16 -16 -17 -18 -18 -19 -19 -20 -20 -20 -20 -20 -20 -21 -21 -21 -21 -21 -22 -22 -23 -23 -23 -24 -24 -24 -24 -23 -23 -23 -23 -23 -23 -23 -23 -23 -22 -22 -22 -21 -21 -21 -20
-16 -16 -17 -18 -18 -19 -20 -20 -20 -20 -20 -20 -20 -21 -21 -21 -22 -22 -22 -23 -23 -23 -24 -24 -24 -24 -24 -23 -23 -23 -23 -23 -23 -23 -23 -22 -22 -22 -21 -21 -21 -20 -20
-17 -17 -17 -18 -18 -19 -20 -20 -20 -20 -20 -20 -20 -21 -21 -22 -22 -22 -22 -23 -24 -24 -24 -24 -24 -24 -24 -23 -23 -23 -23 -23 -23 -22 -22 -22 -22 -21 -21 -21 -20 -20 -20
-17 -17 -18 -18 -19 -20 -20 -20 -20 -20 -20 -20 -21 -21 -22 -22 -22 -22 -23 -23 -24 -24 -24 -24 -24 -24 -24 -23 -23 -23 -23 -23 -23 -22 -22 -22 -22 -21 -21 -20 -20 -20 -19
Height
5770 5766 5761 5755 5750 5745 5740 5735 5731 5727 5723 5720 5716 5712 5708 5705 5701 5697 5694 5690 5687 5684 5680 5676 5672 5667 5662 5656 5649 5643 5637 5631 5624 5617 5610 5602 5595 5589 5582 5575 5569 5565 5560
5765 5760 5755 5749 5745 5740 5735 5730 5727 5723 5719 5716 5713 5709 5705 5702 5698 5695 5691 5687 5682 5679 5675 5671 5666 5659 5653 5647 5640 5632 5624 5617 5611 5603 5594 5584 5575 5567 5560 5555 5549 5545 5543
5759 5754 5749 5744 5740 5735 5730 5725 5721 5718 5714 5712 5709 5706 5702 5698 5694 5690 5686 5683 5678 5673 5668 5663 5656 5650 5644 5636 5629 5622 5613 5604 5595 5586 5575 5565 5556 5548 5543 5537 5534 5532 5530
5753 5748 5744 5739 5735 5730 5724 5720 5716 5712 5709 5706 5703 5701 5697 5693 5689 5686 5682 5677 5672 5668 5663 5656 5649 5642 5634 5627 5619 5610 5603 5591 5581 5571 5561 5551 5542 5535 5531 5527 5525 5522 5521
5748 5744 5739 5734 5729 5724 5719 5715 5710 5707 5703 5700 5698 5695 5692 5688 5684 5680 5676 5671 5667 5661 5655 5649 5642 5634 5625 5617 5608 5599 5591 5581 5571 5561 5552 5545 5536 5530 5524 5519 5516 5514 5511
5743 5739 5734 5729 5724 5719 5714 5710 5706 5702 5698 5695 5692 5689 5685 5682 5678 5674 5670 5665 5660 5654 5647 5640 5632 5625 5617 5608 5597 5588 5578 5570 5561 5552 5543 5536 5529 5523 5518 5512 5508 5505 5502
5738 5733 5728 5724 5718 5713 5709 5705 5702 5697 5693 5690 5687 5684 5680 5677 5673 5669 5664 5660 5654 5647 5641 5634 5626 5616 5608 5600 5587 5577 5569 5560 5551 5544 5535 5526 5521 5514 5510 5506 5500 5495 5491
5733 5728 5723 5718 5713 5708 5704 5700 5696 5693 5689 5685 5682 5679 5675 5672 5669 5665 5660 5654 5647 5641 5634 5626 5619 5609 5600 5591 5581 5571 5563 5555 5546 5538 5528 5519 5510 5506 5503 5499 5494 5490 5486
5728 5723 5717 5713 5708 5704 5699 5695 5691 5688 5685 5681 5677 5674 5670 5668 5664 5660 5655 5649 5642 5634 5626 5618 5611 5602 5593 5583 5573 5566 5558 5550 5541 5531 5521 5511 5504 5501 5498 5495 5489 5486 5483
5723 5718 5712 5707 5703 5699 5695 5691 5687 5683 5680 5676 5673 5669 5666 5663 5659 5654 5649 5643 5635 5629 5620 5611 5603 5595 5585 5575 5566 5560 5553 5545 5537 5527 5518 5510 5504 5500 5496 5492 5488 5485 5482
5717 5712 5707 5703 5699 5695 5691 5687 5683 5679 5676 5672 5668 5665 5663 5660 5655 5650 5643 5637 5630 5622 5614 5606 5597 5588 5579 5568 5561 5555 5548 5540 5532 5523 5517 5510 5504 5499 5495 5491 5488 5485 5482
5712 5708 5703 5699 5695 5691 5687 5683 5679 5675 5671 5668 5665 5662 5659 5655 5650 5644 5638 5631 5623 5616 5608 5600 5591 5582 5572 5563 5556 5550 5543 5535 5527 5520 5514 5509 5503 5499 5496 5492 5488 5485 5481
5708 5704 5699 5695 5691 5686 5683 5679 5674 5671 5667 5664 5662 5659 5655 5651 5646 5640 5633 5625 5617 5610 5602 5593 5585 5575 5566 5558 5552 5546 5539 5532 5523 5518 5513 5508 5504 5500 5496 5493 5489 5485 5482
5704 5699 5696 5691 5686 5682 5679 5675 5670 5666 5663 5660 5658 5655 5651 5646 5640 5634 5627 5619 5611 5604 5596 5587 5578 5568 5559 5552 5547 5542 5535 5528 5521 5517 5512 5508 5504 5501 5497 5493 5489 5486 5484
5699 5695 5691 5686 5682 5678 5675 5671 5667 5663 5660 5657 5654 5650 5646 5641 5635 5628 5621 5613 5606 5599 5591 5582 5572 5563 5554 5548 5544 5539 5533 5525 5519 5515 5511 5508 5505 5501 5497 5494 5491 5488 5485
5695 5691 5687 5682 5678 5674 5671 5667 5663 5658 5656 5654 5650 5646 5641 5635 5629 5623 5615 5608 5601 5593 5585 5576 5567 5558 5551 5546 5542 5537 5531 5524 5519 5515 5512 5509 5505 5502 5498 5495 5492 5489 5486
5691 5687 5684 5679 5674 5671 5667 5662 5660 5656 5653 5650 5646 5642 5636 5631 5624 5617 5610 5603 5596 5588 5579 5570 5561 5554 5547 5543 5539 5534 5529 5523 5519 5516 5513 5510 5506 5503 5499 5496 5492 5489 5487
5687 5683 5680 5676 5671 5667 5661 5658 5656 5653 5650 5647 5643 5638 5632 5627 5620 5613 5606 5598 5590 5582 5573 5565 5557 5550 5544 5540 5536 5532 5527 5522 5519 5517 5514 5510 5507 5504 5500 5496 5493 5489 5486
5683 5680 5675 5672 5667 5662 5658 5655 5653 5650 5647 5643 5638 5633 5628 5622 5616 5609 5602 5594 5587 5578 5569 5561 5553 5546 5542 5538 5534 5530 5526 5522 5519 5516 5513 5510 5507 5503 5500 5496 5492 5489 5486
5680 5676 5672 5668 5663 5658 5655 5653 5650 5647 5643 5638 5634 5629 5624 5618 5611 5604 5597 5590 5582 5573 5565 5557 5549 5543 5540 5536 5532 5529 5526 5522 5518 5515 5512 5509 5506 5503 5499 5496 5492 5489 5485
5676 5673 5668 5663 5659 5655 5653 5650 5647 5644 5640 5635 5631 5625 5619 5613 5607 5600 5593 5585 5577 5569 5561 5553 5546 5541 5538 5534 5531 5528 5525 5522 5518 5514 5511 5508 5505 5502 5499 5495 5491 5487 5484
5672 5669 5665 5660 5656 5653 5649 5646 5643 5640 5636 5632 5627 5621 5616 5610 5603 5596 5589 5581 5573 5565 5557 5550 5543 5540 5537 5533 5530 5528 5525 5521 5518 5514 5511 5508 5505 5501 5498 5494 5490 5486 5483
5670 5666 5661 5656 5653 5650 5646 5643 5640 5636 5632 5628 5623 5618 5613 5607 5600 5593 5585 5578 5569 5561 5553 5546 5541 5538 5535 5532 5530 5527 5524 5521 5518 5514 5511 5508 5504 5500 5496 5493 5489 5486 5482
5666 5662 5657 5653 5649 5646 5643 5640 5637 5633 5629 5625 5620 5615 5610 5604 5597 5590 5582 5574 5566 5558 5550 5543 5539 5537 5535 5532 5529 5527 5524 5521 5518 5514 5511 5507 5503 5499 5496 5492 5488 5484 5481
5662 5658 5653 5649 5646 5643 5640 5637 5634 5630 5626 5622 5617 5612 5607 5601 5595 5587 5579 5571 5563 5555 5548 5542 5539 5537 5534 5531 5529 5526 5524 5521 5517 5514 5510 5506 5503 5499 5495 5491 5487 5483 5480
5656 5654 5650 5646 5643 5641 5638 5635 5631 5627 5623 5619 5615 5610 5605 5599 5592 5585 5577 5569 5561 5553 5546 5541 5539 5537 5534 5531 5529 5526 5524 5521 5517 5513 5510 5506 5502 5498 5494 5490 5486 5482 5477
Wind_Speed
29 30 31 32 34 36 34 30 26 24 20 18 19 14 14 15 16 18 19 21 22 24 26 28 31 33 34 36 41 43 44 46 47 49 51 53 55 56 57 58 58 58 57
30 31 31 33 35 37 34 31 27 24 22 19 19 18 17 18 18 20 21 23 25 27 29 31 34 36 38 41 42 46 49 50 52 53 56 58 61 63 60 55 51 48 44
32 32 33 35 37 37 33 31 28 26 26 22 21 23 22 21 22 24 25 27 28 30 32 35 38 40 42 44 47 49 51 54 56 57 59 60 58 55 45 42 38 36 35
32 32 35 36 37 36 32 31 29 28 27 25 22 25 26 26 26 26 27 29 30 32 34 38 41 43 44 47 49 52 53 56 56 53 50 47 43 39 34 31 31 33 36
33 34 36 37 37 35 32 30 28 28 27 26 25 25 27 28 29 29 29 30 31 35 38 40 43 44 46 48 51 54 54 52 49 45 41 38 34 32 33 32 32 33 35
33 36 37 36 35 33 31 28 28 27 25 23 24 25 27 29 30 29 29 30 33 37 41 45 46 46 47 50 53 54 51 46 45 45 43 37 35 33 32 31 31 34 36
34 36 37 35 34 32 30 28 25 25 23 22 24 26 27 28 28 28 28 31 36 41 43 44 44 47 47 50 53 49 42 43 45 46 48 40 33 28 26 28 30 28 28
33 35 37 33 32 31 29 26 24 24 24 24 26 27 27 27 26 25 29 34 39 41 43 44 44 45 48 50 48 39 39 41 43 45 46 45 36 24 25 25 24 22 20
33 36 33 31 30 29 27 25 25 25 25 25 25 26 26 26 24 26 31 37 40 42 44 44 44 45 48 50 44 36 38 41 43 44 44 42 28 22 20 21 20 17 15
34 33 29 30 29 28 26 25 24 24 25 24 24 24 24 25 26 30 35 40 42 43 43 43 45 46 48 49 38 35 37 38 40 41 37 27 21 19 18 16 15 15 14
32 30 30 28 28 26 26 25 25 24 24 23 22 22 23 24 27 33 39 42 43 42 41 42 43 46 48 46 34 34 34 37 38 35 27 24 21 19 16 15 15 15 14
30 29 27 28 27 26 25 25 24 24 23 21 20 22 23 26 31 36 41 41 42 40 40 42 43 45 47 40 30 34 33 37 38 27 22 21 20 17 17 17 16 14 13
29 28 27 28 28 26 25 24 24 23 22 19 20 22 24 28 33 39 40 40 40 39 41 42 44 47 45 34 28 32 33 36 31 22 20 18 17 17 17 15 15 13 11
28 27 26 28 27 26 25 23 24 22 19 18 21 23 27 32 36 40 38 39 39 39 42 43 46 47 44 30 28 30 32 35 24 18 16 15 16 17 16 15 12 10 11
28 27 27 27 27 25 23 22 21 19 17 19 23 26 31 35 38 38 36 38 38 40 41 44 46 43 36 26 28 28 30 29 20 17 16 15 16 16 16 14 11 9 11
28 28 27 27 26 24 23 21 19 18 19 19 24 29 33 37 38 35 37 36 38 40 43 45 45 39 30 22 24 25 28 23 17 15 14 15 16 16 15 13 11 11 10
28 26 26 26 25 22 20 19 17 18 20 22 26 30 34 35 33 35 35 37 39 41 45 46 41 35 25 20 21 22 25 19 13 13 14 15 15 15 15 15 14 12 11
27 25 25 26 24 21 20 19 17 18 19 24 27 30 31 31 33 32 34 37 40 44 44 40 37 32 20 19 19 19 22 18 13 12 13 13 13 14 15 16 15 13 12
25 24 25 25 22 19 19 18 17 18 21 25 27 29 28 31 31 32 34 37 41 42 41 39 35 28 16 18 15 17 19 20 15 13 11 12 13 14 14 15 15 13 12
22 24 23 21 18 19 19 17 17 19 22 25 26 27 29 29 30 33 36 39 41 41 39 38 34 23 15 17 13 16 17 18 17 14 12 12 13 13 15 15 14 13 12
21 22 22 21 21 20 18 15 17 19 21 22 24 27 28 29 31 34 38 40 40 40 39 36 30 18 15 15 12 15 16 17 17 15 13 13 13 15 16 15 13 13 13
19 22 22 20 19 16 16 17 19 20 19 22 25 26 27 29 32 36 39 40 39 40 40 33 24 14 16 14 12 15 16 15 15 16 15 14 14 15 16 15 15 16 15
21 21 19 18 17 17 17 17 18 17 20 23 24 25 27 29 33 37 40 39 40 41 39 30 19 12 15 12 12 14 14 15 17 17 16 15 14 14 15 15 16 16 15
20 20 19 18 17 16 15 15 16 18 21 23 24 25 28 31 34 37 40 40 41 40 36 26 13 12 15 12 11 13 13 15 16 16 16 16 16 17 16 15 15 15 16
17 19 19 19 17 15 14 15 17 18 21 23 24 26 28 31 35 37 39 40 40 37 32 22 10 12 15 12 12 13 13 15 17 17 16 16 16 17 16 16 16 16 17
15 17 17 16 14 13 14 14 16 19 21 22 24 26 28 32 35 38 39 40 38 34 30 15 9 13 14 11 12 12 13 15 17 16 16 16 16 17 17 17 17 18 20
Wind_Direction
318 319 321 324 326 327 322 317 307 305 302 305 307 318 324 330 336 337 337 333 334 330 327 326 323 320 317 316 316 314 313 314 311 309 306 303 300 296 291 288 285 281 278
320 321 324 325 326 326 321 316 302 300 297 301 302 308 314 322 325 326 324 325 324 324 323 323 322 322 321 319 317 319 317 315 314 312 307 303 300 297 294 290 286 283 281
322 324 326 325 324 323 319 316 305 298 293 296 303 305 309 313 317 319 322 321 321 321 323 324 327 326 322 321 322 321 320 318 316 313 308 305 302 299 299 295 287 282 277
322 325 324 321 321 321 318 314 305 297 295 294 297 303 306 309 312 316 319 319 322 322 324 328 326 324 322 323 323 321 321 319 317 316 316 315 311 310 309 300 292 286 282
322 322 321 320 319 319 317 314 307 305 300 297 299 301 304 305 308 313 316 319 321 321 326 328 325 323 325 325 324 322 322 319 322 325 320 314 312 311 306 302 298 294 292
321 320 318 319 319 317 316 312 309 311 306 301 302 303 303 304 308 311 316 321 324 328 327 326 324 326 326 327 324 324 324 327 331 336 331 317 309 305 301 299 301 298 297
320 319 317 321 317 316 315 311 310 312 311 307 307 306 304 306 308 313 319 323 327 326 325 325 325 326 328 328 326 325 327 332 333 332 332 325 318 311 308 307 305 305 305
319 318 319 321 318 318 314 311 307 310 310 309 309 309 307 307 308 316 321 326 326 324 324 324 328 328 328 328 328 324 329 329 327 328 329 328 324 315 313 313 313 314 314
318 318 320 320 318 317 317 311 308 311 312 313 314 311 308 307 315 322 322 326 324 326 326 328 329 329 328 329 328 326 327 326 328 330 332 332 334 333 327 323 323 328 328
317 318 318 317 316 317 314 310 312 314 313 314 313 309 308 316 321 321 322 329 329 327 328 329 329 329 330 331 328 329 329 329 330 333 337 343 346 340 341 342 338 342 337
316 317 317 314 316 313 311 313 315 316 317 316 313 310 309 313 319 320 328 328 327 328 328 328 328 330 331 332 328 329 332 331 333 335 336 339 345 355 358 353 347 343 341
315 317 317 316 315 310 312 313 316 318 318 315 312 308 311 320 322 326 327 327 326 327 327 328 329 331 332 332 327 332 332 334 335 337 341 350 354 355 355 350 349 349 349
315 318 317 316 314 311 311 315 318 318 317 314 309 311 315 318 321 325 326 325 326 328 329 330 331 332 332 329 330 334 333 336 339 342 349 353 353 353 353 354 352 359 12
315 317 315 315 314 311 313 317 319 320 317 305 304 307 314 319 323 324 326 327 328 329 331 331 333 332 332 331 335 336 337 340 343 347 356 360 357 355 355 357 3 13 17
315 315 312 314 315 315 315 318 319 316 305 304 311 315 317 318 322 327 328 328 329 331 331 332 332 333 331 329 333 335 339 343 351 357 1 360 358 0 2 2 4 15 16
315 315 314 316 318 314 315 319 316 306 303 308 313 314 317 323 326 327 330 330 330 331 332 332 332 333 330 326 330 336 343 348 356 358 359 359 1 1 1 359 355 359 1
315 316 317 318 317 316 314 308 311 310 310 312 313 317 320 323 327 329 329 331 332 333 333 335 335 334 328 327 334 339 346 349 353 357 2 2 2 1 1 357 352 350 347
314 316 320 317 319 318 307 312 318 313 312 310 315 320 324 328 329 330 332 332 334 336 335 337 337 336 328 331 335 342 348 350 348 348 354 357 2 2 1 359 355 350 345
315 319 320 320 321 309 303 311 315 315 314 316 321 324 327 330 331 333 333 335 337 336 338 338 339 337 331 334 337 347 346 351 347 338 337 350 352 353 357 355 351 348 344
317 318 321 318 312 303 305 319 323 320 319 322 323 327 331 333 335 336 336 338 338 339 339 339 340 338 337 337 342 350 350 351 352 349 345 340 345 345 349 350 347 344 345
318 318 317 313 319 317 323 328 321 320 323 323 327 332 335 336 338 338 339 340 340 341 341 340 338 337 341 342 347 351 349 350 351 353 351 349 349 344 345 348 351 356 352
314 316 321 328 331 329 323 320 321 325 326 330 336 336 338 339 340 340 341 341 340 340 341 340 338 338 344 343 347 355 356 357 354 358 358 355 352 349 345 346 351 350 350
315 321 330 333 328 326 324 327 328 328 332 338 337 338 341 342 342 341 341 341 340 342 342 340 339 343 347 345 349 354 354 355 357 354 355 351 349 353 350 344 342 342 339
317 324 330 331 333 334 327 326 328 333 338 338 339 342 344 343 343 343 342 341 342 342 343 343 341 346 350 347 347 350 352 354 353 354 354 351 353 351 347 343 342 341 334
319 324 332 333 335 335 329 328 333 337 340 340 343 346 344 343 344 344 343 342 342 343 345 346 346 350 352 352 350 349 352 355 357 357 354 352 349 347 344 344 344 343 338
320 331 332 332 330 322 325 333 337 340 340 344 346 345 344 345 345 346 345 344 345 346 348 349 349 353 354 356 354 357 357 355 355 356 356 354 350 348 349 348 348 346 339